FW7111 Weather Reports


time (UTC)temp
F
wind
direction
speed
knots
gust
knots
rain 1hr
in
rain 24hr
in
rain mn
in
humidity
%
barometer
mb
20260508030026 54 39 0.0 0.0 0.00 0.29 0.29 98 1012.2
20260508024542 54 44 0.0 0.0 0.00 0.29 0.29 98 1012.1
20260508024025 54 47 0.0 0.0 0.00 0.29 0.29 98 1011.9
20260508023026 54 47 0.0 0.0 0.00 0.29 0.29 98 1011.8
20260508022526 54 47 0.0 0.0 0.00 0.29 0.29 97 1011.8
20260508022026 54 47 0.0 0.0 0.00 0.29 0.29 97 1011.8
20260508021526 54 47 0.0 0.0 0.00 0.29 0.29 97 1011.8
20260508021026 54 47 0.0 0.0 0.00 0.29 0.29 97 1011.8
20260508020037 54 46 0.0 0.0 0.00 0.29 0.29 97 1011.9
20260508015526 55 46 0.0 0.0 0.00 0.29 0.29 97 1011.7
20260508015026 54 46 0.0 0.0 0.00 0.29 0.29 97 1011.6
20260508014526 54 46 0.0 0.0 0.00 0.29 0.29 97 1011.4
20260508014026 54 46 0.0 0.0 0.00 0.29 0.29 97 1011.1
20260508013526 55 46 0.0 0.0 0.00 0.29 0.29 97 1011.1
20260508013026 55 46 0.0 0.0 0.00 0.29 0.29 97 1011.0
20260508012526 55 47 0.0 0.0 0.00 0.29 0.29 97 1010.9
20260508012026 55 46 0.0 0.0 0.00 0.29 0.29 96 1011.2
20260508011535 55 46 0.0 0.0 0.00 0.29 0.29 96 1011.2
20260508010525 55 46 0.0 0.0 0.00 0.29 0.29 96 1011.3
20260508010026 55 46 0.0 0.0 0.00 0.29 0.29 96 1011.0
20260508005526 55 46 0.0 0.0 0.00 0.29 0.29 96 1010.9
20260508005026 55 46 0.0 0.0 0.00 0.29 0.29 96 1010.8
20260508004526 55 46 0.0 0.0 0.00 0.29 0.29 96 1010.8
20260508003527 55 55 0.0 0.0 0.00 0.29 0.29 95 1010.6
20260508002533 55 53 0.0 0.0 0.00 0.29 0.29 96 1010.7
20260508002026 55 42 0.0 0.0 0.00 0.29 0.29 96 1010.8
20260508001526 55 45 0.0 0.0 0.00 0.29 0.29 96 1010.7
20260508001026 55 41 0.0 0.0 0.00 0.29 0.29 96 1010.6
20260508000526 55 43 0.0 0.0 0.00 0.29 0.29 96 1010.5
20260508000026 55 43 0.0 0.0 0.00 0.29 0.29 96 1010.4
20260507235526 55 42 0.0 0.0 0.00 0.29 0.29 95 1010.0
20260507235025 55 47 0.0 0.0 0.00 0.29 0.29 95 1010.1
20260507234544 55 44 0.0 0.0 0.00 0.29 0.29 96 1010.1
20260507234025 55 38 0.0 0.0 0.00 0.29 0.29 95 1009.8
20260507233526 55 46 0.0 0.9 0.00 0.29 0.29 94 1009.7
20260507233026 55 50 0.0 0.0 0.00 0.29 0.29 94 1009.7
20260507232026 55 49 0.0 0.0 0.00 0.29 0.29 95 1009.6
20260507231526 55 58 0.0 0.9 0.00 0.29 0.29 94 1009.8
20260507230526 55 58 0.0 0.9 0.00 0.29 0.29 94 1009.8
20260507230025 55 54 0.0 0.9 0.00 0.29 0.29 95 1009.8
20260507225525 56 49 0.0 0.0 0.00 0.29 0.29 96 1009.7
20260507224525 56 43 0.0 0.0 0.00 0.29 0.29 96 1009.5
20260507224025 56 46 0.0 0.0 0.00 0.29 0.29 95 1009.6
20260507223525 55 39 0.0 0.9 0.00 0.29 0.29 95 1009.5
20260507222525 56 48 0.0 0.0 0.00 0.29 0.29 96 1009.4
20260507222025 55 50 0.0 0.9 0.00 0.29 0.29 96 1009.6
20260507221525 55 46 0.0 0.9 0.00 0.29 0.29 95 1009.7
20260507221025 55 47 0.0 0.9 0.00 0.29 0.29 95 1009.6
20260507220525 55 55 0.0 0.9 0.00 0.29 0.29 95 1009.8
20260507215025 55 42 0.0 0.9 0.00 0.29 0.29 95 1009.5
20260507214525 55 54 0.9 1.7 0.00 0.29 0.29 95 1009.4
20260507214025 56 46 0.0 0.9 0.00 0.29 0.29 95 1009.5
20260507213525 56 47 0.0 0.9 0.00 0.29 0.29 95 1009.5
20260507213025 56 59 0.0 1.7 0.00 0.29 0.29 95 1009.4
20260507212525 55 46 0.0 0.9 0.00 0.29 0.29 94 1009.4
20260507212025 55 49 0.0 0.9 0.00 0.29 0.29 95 1009.4
20260507211525 56 60 0.9 0.9 0.00 0.29 0.29 95 1009.4
20260507211027 55 64 0.0 0.9 0.00 0.29 0.29 95 1009.4
20260507210525 55 53 0.0 1.7 0.00 0.29 0.29 94 1009.2
20260507210025 55 48 0.0 0.9 0.00 0.29 0.29 95 1008.9
20260507205525 55 54 0.0 1.7 0.00 0.29 0.29 95 1008.9
20260507205025 55 57 0.9 1.7 0.00 0.29 0.29 95 1009.0
20260507204525 55 55 0.0 1.7 0.00 0.29 0.29 95 1009.0
20260507204025 55 61 0.0 2.6 0.00 0.29 0.29 95 1009.1
20260507203525 55 52 0.0 1.7 0.00 0.29 0.29 96 1009.1
20260507203025 55 65 0.9 2.6 0.00 0.29 0.29 97 1009.0
20260507202525 55 54 0.0 1.7 0.00 0.29 0.29 97 1008.9
20260507202025 56 43 0.0 0.9 0.00 0.29 0.29 97 1008.8
20260507201525 56 47 0.9 3.5 0.00 0.29 0.29 98 1008.6
20260507200525 57 58 0.0 0.9 0.00 0.29 0.29 98 1008.8
20260507200025 57 50 0.0 0.9 0.00 0.29 0.29 98 1008.9
20260507194525 57 47 0.0 0.9 0.00 0.29 0.29 98 1008.4
20260507194028 57 60 0.9 2.6 0.00 0.29 0.29 98 1008.4
20260507193525 57 63 0.0 1.7 0.00 0.29 0.29 98 1008.6
20260507193025 57 45 0.0 0.9 0.00 0.29 0.29 98 1008.8
20260507192526 57 63 0.0 1.7 0.00 0.30 0.29 98 1008.9
20260507191025 58 48 0.0 0.9 0.01 0.31 0.29 98 1008.9
20260507190525 58 47 0.0 0.9 0.01 0.31 0.29 98 1008.7
20260507185525 58 44 0.0 0.9 0.01 0.36 0.29 98 1008.2
20260507185025 58 53 0.0 0.9 0.01 0.38 0.29 98 1008.2
20260507184525 58 51 0.0 0.9 0.01 0.38 0.29 98 1008.6
20260507184025 58 50 0.0 0.0 0.01 0.38 0.29 98 1008.8
20260507183025 58 39 0.0 1.7 0.01 0.38 0.29 98 1008.2
20260507182525 59 56 0.0 0.9 0.01 0.38 0.29 98 1008.1
20260507182025 59 47 0.0 0.0 0.01 0.38 0.29 98 1007.9
20260507181525 59 39 0.0 0.9 0.02 0.38 0.29 98 1007.8
20260507181025 59 67 0.9 1.7 0.02 0.37 0.28 98 1008.1
20260507180525 59 55 0.0 0.9 0.02 0.37 0.28 98 1007.9
20260507180025 59 57 0.9 3.5 0.02 0.37 0.28 98 1008.1
20260507175525 60 64 0.9 1.7 0.02 0.37 0.28 98 1008.6
20260507175025 60 52 0.0 1.7 0.02 0.37 0.28 98 1008.9
20260507174525 61 51 0.0 1.7 0.02 0.37 0.28 98 1008.9
20260507173525 62 47 0.0 0.9 0.02 0.37 0.28 98 1008.1
20260507173025 63 51 0.0 0.9 0.02 0.37 0.28 97 1008.0
20260507172525 64 48 0.0 0.9 0.02 0.37 0.28 97 1007.8
20260507172025 67 63 0.9 6.1 0.02 0.37 0.28 97 1007.5
20260507171525 68 44 0.0 0.9 0.01 0.36 0.27 99 1007.0
20260507171025 68 45 0.0 0.0 0.01 0.36 0.27 99 1007.0
20260507170525 68 47 0.0 0.0 0.01 0.36 0.27 99 1007.1
20260507170025 67 42 0.0 0.0 0.01 0.36 0.27 99 1007.0
20260507165525 68 51 0.0 0.0 0.01 0.36 0.27 99 1007.3
20260507165025 68 44 0.0 0.0 0.01 0.36 0.27 99 1007.6
20260507164525 69 52 0.0 0.9 0.01 0.36 0.27 99 1007.6
20260507164025 68 45 0.0 0.9 0.01 0.36 0.27 99 1008.1
20260507163525 69 115 0.9 1.7 0.01 0.36 0.27 99 1008.2
20260507163025 68 37 0.0 0.9 0.00 0.35 0.26 99 1008.3
20260507162525 68 81 0.9 1.7 0.01 0.35 0.26 99 1008.4
20260507161525 68 39 0.0 0.9 0.02 0.35 0.26 99 1008.5
20260507161025 68 39 0.0 0.0 0.02 0.35 0.26 99 1008.7
20260507160525 68 42 0.0 0.0 0.02 0.35 0.26 99 1008.7
20260507160025 68 46 0.0 0.0 0.03 0.35 0.26 99 1008.7
20260507155526 68 41 0.0 0.0 0.03 0.35 0.26 99 1008.7
20260507155025 68 41 0.0 0.0 0.03 0.35 0.26 99 1008.6
20260507154525 68 41 0.0 0.0 0.03 0.35 0.26 99 1008.3
20260507154025 68 42 0.0 0.0 0.03 0.35 0.26 99 1008.1
20260507153525 68 47 0.0 0.0 0.05 0.35 0.26 99 1008.1
20260507153025 68 43 0.0 0.0 0.05 0.35 0.26 99 1008.5
20260507152525 68 42 0.0 0.0 0.05 0.34 0.25 99 1008.5
20260507151525 68 41 0.0 0.0 0.06 0.34 0.25 99 1008.6
20260507151025 67 48 0.0 0.0 0.06 0.34 0.25 99 1008.5
20260507150525 67 47 0.0 0.0 0.06 0.34 0.25 99 1008.6
20260507150025 67 43 0.0 0.0 0.06 0.33 0.24 99 1008.8
20260507145525 67 43 0.0 0.0 0.08 0.33 0.24 99 1008.8
20260507145025 67 42 0.0 0.0 0.09 0.33 0.24 99 1008.9
20260507144525 67 40 0.0 0.0 0.08 0.32 0.23 99 1009.0
20260507144025 67 40 0.0 0.0 0.09 0.32 0.23 99 1008.9
20260507143525 67 45 0.0 0.0 0.09 0.31 0.22 99 1008.9
20260507143025 67 41 0.0 0.0 0.09 0.31 0.22 99 1008.9
20260507142525 67 41 0.0 0.0 0.07 0.29 0.20 99 1008.9
20260507142025 67 42 0.0 0.0 0.06 0.28 0.19 99 1008.8
20260507141525 67 41 0.0 0.0 0.06 0.28 0.19 99 1008.7
20260507140525 67 39 0.0 0.9 0.06 0.28 0.19 99 1008.9
20260507140026 67 74 0.9 1.7 0.05 0.27 0.18 99 1009.1
20260507135525 67 46 0.0 0.9 0.03 0.25 0.16 99 1009.2
20260507135025 67 36 0.0 0.0 0.02 0.24 0.15 99 1009.3
20260507134026 67 32 0.0 0.9 0.01 0.23 0.14 99 1009.3
20260507133525 67 48 0.0 0.0 0.00 0.22 0.13 99 1009.1
20260507133025 67 58 0.0 0.9 0.00 0.22 0.13 99 1009.2
20260507132525 67 40 0.0 0.9 0.00 0.22 0.13 99 1009.2
20260507132025 67 40 0.0 0.0 0.00 0.22 0.13 99 1009.2
20260507131525 67 39 0.0 0.0 0.00 0.22 0.13 99 1009.3
20260507131025 67 39 0.0 0.0 0.00 0.22 0.13 99 1009.2
20260507130525 66 39 0.0 0.0 0.00 0.22 0.13 99 1009.2
20260507130025 66 38 0.0 0.0 0.00 0.22 0.13 99 1009.2
20260507125525 66 38 0.0 0.0 0.00 0.22 0.13 99 1009.3
20260507125025 66 38 0.0 0.0 0.00 0.22 0.13 99 1009.2
20260507124525 66 39 0.0 0.0 0.00 0.22 0.13 99 1009.4
20260507124025 66 40 0.0 0.0 0.02 0.22 0.13 99 1009.4
20260507123525 66 42 0.0 0.0 0.03 0.22 0.13 99 1009.4
20260507123025 66 48 0.0 0.0 0.03 0.22 0.13 99 1009.3
20260507122525 66 46 0.0 0.0 0.03 0.22 0.13 99 1009.1
20260507122025 66 44 0.0 0.0 0.03 0.22 0.13 99 1009.2
20260507121525 66 47 0.0 0.0 0.03 0.22 0.13 99 1009.3
20260507121025 66 48 0.0 0.0 0.03 0.22 0.13 99 1009.2
20260507120525 66 35 0.0 0.0 0.03 0.22 0.13 99 1009.5
20260507120025 66 32 0.0 0.9 0.03 0.22 0.13 99 1009.5
20260507115525 66 50 0.0 0.9 0.03 0.22 0.13 99 1009.3
20260507115025 66 35 0.0 0.0 0.03 0.22 0.13 99 1009.6
20260507114526 66 46 0.0 0.9 0.03 0.22 0.13 99 1009.7
20260507114030 66 41 0.0 0.0 0.01 0.21 0.12 99 1009.7
20260507113525 66 34 0.0 0.0 0.00 0.20 0.11 99 1009.7
20260507113026 66 34 0.0 0.0 0.00 0.20 0.11 99 1009.7
20260507112525 66 34 0.0 0.0 0.01 0.20 0.11 99 1009.7
20260507112034 66 37 0.0 0.0 0.01 0.20 0.11 99 1009.7
20260507111525 66 39 0.0 0.0 0.01 0.20 0.11 99 1009.8
20260507111025 66 39 0.0 0.0 0.01 0.20 0.11 99 1009.8
20260507110525 66 40 0.0 0.0 0.01 0.20 0.11 99 1009.7
20260507110025 65 41 0.0 0.0 0.01 0.20 0.11 99 1009.5
20260507105525 66 42 0.0 0.0 0.01 0.20 0.11 99 1009.2
20260507105025 66 42 0.0 0.0 0.02 0.20 0.11 99 1009.2
20260507104525 66 41 0.0 0.0 0.02 0.20 0.11 99 1009.2
20260507104025 66 38 0.0 0.0 0.02 0.20 0.11 99 1009.2
20260507103525 65 34 0.0 0.9 0.02 0.20 0.11 99 1009.4
20260507103025 65 37 0.0 0.9 0.02 0.20 0.11 99 1009.3
20260507102525 65 38 0.0 0.0 0.02 0.19 0.10 99 1009.2
20260507102025 65 39 0.0 0.0 0.02 0.19 0.10 99 1009.2
20260507101525 65 39 0.0 0.0 0.02 0.19 0.10 99 1009.3
20260507101025 65 39 0.0 0.0 0.02 0.19 0.10 99 1009.3
20260507100525 65 39 0.0 0.0 0.02 0.19 0.10 99 1009.3
20260507100025 65 39 0.0 0.0 0.02 0.19 0.10 99 1009.2
20260507095027 65 39 0.0 0.0 0.00 0.18 0.09 99 1009.3
20260507094525 65 39 0.0 0.0 0.00 0.18 0.09 99 1009.2
20260507094025 65 39 0.0 0.0 0.00 0.18 0.09 99 1009.5
20260507093525 65 39 0.0 0.0 0.00 0.18 0.09 99 1009.4
20260507092525 65 36 0.0 0.0 0.00 0.18 0.09 99 1009.2
20260507092025 65 38 0.0 0.0 0.00 0.18 0.09 99 1009.3
20260507091525 65 45 0.0 0.0 0.01 0.18 0.09 99 1009.3
20260507091027 65 45 0.0 0.0 0.01 0.18 0.09 99 1009.4
20260507090525 65 42 0.0 0.0 0.01 0.18 0.09 99 1009.5
20260507085025 65 40 0.0 0.0 0.02 0.18 0.09 99 1009.5
20260507084525 65 40 0.0 0.0 0.02 0.18 0.09 99 1009.5
20260507084026 65 40 0.0 0.0 0.03 0.18 0.09 99 1009.7
20260507083026 65 40 0.0 0.0 0.03 0.18 0.09 99 1010.0
20260507082525 65 40 0.0 0.0 0.03 0.18 0.09 99 1010.1
20260507082025 65 40 0.0 0.0 0.03 0.18 0.09 99 1010.3
20260507081525 65 40 0.0 0.0 0.02 0.17 0.08 99 1010.3
20260507080525 65 40 0.0 0.0 0.02 0.17 0.08 99 1009.8
20260507080025 65 41 0.0 0.0 0.02 0.17 0.08 99 1009.7
20260507075525 65 50 0.0 0.0 0.02 0.17 0.08 99 1009.5
20260507075025 65 44 0.0 0.9 0.01 0.16 0.07 99 1010.1
20260507074525 65 43 0.0 0.0 0.01 0.16 0.07 99 1010.3
20260507074025 65 33 0.0 0.0 0.00 0.15 0.06 99 1010.5
20260507073527 65 36 0.0 0.0 0.00 0.15 0.06 99 1010.7
20260507073025 65 42 0.0 0.0 0.00 0.15 0.06 99 1010.5
20260507072525 65 42 0.0 0.0 0.00 0.15 0.06 99 1010.6
20260507072025 65 42 0.0 0.0 0.00 0.15 0.06 99 1010.3
20260507071525 65 42 0.0 0.0 0.00 0.15 0.06 99 1010.4
20260507071025 65 42 0.0 0.0 0.00 0.15 0.06 99 1010.5
20260507070525 65 42 0.0 0.0 0.00 0.15 0.06 99 1010.2
20260507070025 65 42 0.0 0.0 0.00 0.15 0.06 99 1010.0
20260507065025 65 42 0.0 0.0 0.00 0.15 0.06 99 1010.5
20260507064525 65 42 0.0 0.0 0.00 0.15 0.06 99 1010.7
20260507063525 65 42 0.0 0.0 0.00 0.15 0.06 99 1011.1
20260507062525 65 45 0.0 0.0 0.00 0.15 0.06 99 1011.0
20260507062025 65 52 0.0 0.0 0.01 0.15 0.06 99 1010.6
20260507061525 66 51 0.0 0.0 0.01 0.15 0.06 99 1011.1
20260507061025 66 52 0.0 0.0 0.02 0.15 0.06 99 1011.4
20260507060525 66 57 0.0 0.9 0.02 0.15 0.06 99 1011.4
20260507060025 66 48 0.0 0.9 0.03 0.15 0.06 99 1011.3
20260507055525 66 37 0.0 0.0 0.03 0.15 0.06 99 1011.5
20260507055026 66 38 0.0 0.0 0.04 0.15 0.06 99 1011.4
20260507054525 66 38 0.0 0.0 0.04 0.15 0.06 99 1011.2
20260507054026 66 38 0.0 0.0 0.05 0.15 0.06 99 1010.8
20260507053525 66 40 0.0 0.0 0.05 0.15 0.06 99 1010.4
20260507053025 66 44 0.0 0.0 0.06 0.15 0.06 99 1010.4
20260507052525 66 39 0.0 0.0 0.06 0.15 0.06 99 1010.6
20260507052025 66 42 0.0 0.9 0.05 0.14 0.05 98 1010.6
20260507051526 66 66 0.0 0.9 0.05 0.14 0.05 98 1010.7
20260507051026 66 88 0.9 0.9 0.04 0.13 0.04 98 1011.0
20260507050525 66 74 0.9 1.7 0.04 0.13 0.04 98 1011.2
20260507045526 67 55 0.0 0.9 0.03 0.12 0.03 97 1012.2
20260507045025 67 136 0.9 1.7 0.02 0.11 0.02 97 1012.7
20260507044525 68 103 0.9 1.7 0.02 0.11 0.02 95 1012.7
20260507044025 68 59 0.9 1.7 0.01 0.10 0.01 94 1012.6
20260507043526 69 179 0.9 2.6 0.01 0.10 0.01 93 1012.6
20260507043025 69 111 0.9 1.7 0.00 0.09 0.00 90 1012.5
20260507042525 69 147 0.9 2.6 0.00 0.09 0.00 90 1012.6
20260507042025 68 106 0.9 1.7 0.00 0.09 0.00 92 1012.6
20260507041025 68 34 0.0 0.9 0.00 0.09 0.00 94 1012.3
20260507040026 68 39 0.0 0.0 0.00 0.09 0.00 94 1011.9
20260507035525 68 37 0.0 0.0 0.00 0.09 0.09 93 1011.7
20260507035025 68 40 0.0 0.0 0.00 0.09 0.09 93 1011.5
20260507034025 68 45 0.0 0.0 0.00 0.09 0.09 93 1011.1
20260507033526 68 45 0.0 0.0 0.00 0.09 0.09 93 1011.3
20260507032525 68 38 0.0 0.0 0.00 0.09 0.09 93 1011.8
20260507032025 68 40 0.0 0.0 0.00 0.09 0.09 93 1011.7
20260507031526 68 39 0.0 0.0 0.00 0.09 0.09 93 1011.7
20260507031025 68 40 0.0 0.0 0.00 0.09 0.09 93 1011.6
20260507030525 68 42 0.0 0.0 0.00 0.09 0.09 94 1011.5